Regional Weather Roundup
Issued by NWS

Home | Current Version | Previous Version | Text Only | Print | Product List | Glossary Off
Versions: 1 2 3 4 5 6 7 8 9 10 11 12 13 14 15 16 17 18 19 20 21 22 23 24 25 26 27 28 29 30 31 32 33 34 35 36 37 38 39 40 41 42 43 44 45 46 47 48 49 50

000
ASUS43 KDMX 221807
RWRIA

WEATHER ROUNDUP FOR IOWA
NATIONAL WEATHER SERVICE DES MOINES IA
100 PM CDT FRI MAY 22 2015

NOTE: "FAIR" INDICATES FEW OR NO CLOUDS BELOW 12,000 FEET WITH NO
SIGNIFICANT WEATHER AND/OR OBSTRUCTIONS TO VISIBILITY.

* - THESE STATIONS ARE NOT NWS STATIONS...THUS NOT UNDER NWS
QUALITY CONTROL.  THEY ALSO DO NOT REPORT WEATHER SUCH
AS PRECIPITATION OR FOG.

IAZ001>003-012>014-020>022-031>034-043>046-221900-
   NORTHWEST IOWA

CITY           SKY/WX    TMP DP  RH WIND       PRES   REMARKS
CARROLL *      SUNNY     73  36  25 SE6       30.21F
CHEROKEE *     MOSUNNY   73  41  32 S5        30.21F
DENISON *      SUNNY     72  37  28 CALM      30.20F
LE MARS *      SUNNY     72  36  26 SW3       30.21F
ORANGE CITY *  SUNNY     72  37  28 SW3       30.21F
SHELDON *      SUNNY     72  32  23 CALM      30.20F
SIOUX CITY     CLOUDY    73  39  29 VRB5      30.21F
6HR MIN TEMP:  49; 6HR MAX TEMP:  73;

SPENCER        MOSUNNY   73  37  27 S5        30.22S
6HR MIN TEMP:  45; 6HR MAX TEMP:  73;

STORM LAKE *   SUNNY     72  30  21 CALM      30.23S
$$

IAZ055>058-069>071-079>083-090>094-221900-
   SOUTHWEST IOWA

CITY           SKY/WX    TMP DP  RH WIND       PRES   REMARKS
ATLANTIC *     SUNNY     70  41  35 SW5       30.22F
AUDUBON *      SUNNY     72  37  28 CALM      30.23S
CLARINDA *     SUNNY     68  46  45 CALM      30.26S
COUNCIL BLFS * SUNNY     68  45  42 S6        30.24S
CRESTON *        N/A    N/A N/A N/A MISG        N/A
HARLAN  *      SUNNY     72  39  30 S6        30.25F
LAMONI         CLOUDY    70  52  52 SW8       30.24S
6HR MIN TEMP:  53; 6HR MAX TEMP:  71;

RED OAK *      SUNNY     68  45  42 S7        30.24S
SHENANDOAH *   SUNNY     68  45  42 CALM      30.25S
$$

IAZ047>049-059>061-072>074-084-221900-
   CENTRAL IOWA

CITY           SKY/WX    TMP DP  RH WIND       PRES   REMARKS
AMES             N/A     74  38  27 VRB7      30.22S
6HR MIN TEMP:  47; 6HR MAX TEMP:  74;

ANKENY *       SUNNY     73  41  31 SW5       30.22F
CHARITON *     SUNNY     72  43  35 CALM      30.23S
DES MOINES     CLOUDY    74  37  26 W3        30.22F
6HR MIN TEMP:  53; 6HR MAX TEMP:  76;

GRINNELL*      MOSUNNY   72  34  25 CALM      30.23S
KNOXVILLE *    SUNNY     73  36  25 SW5       30.21F
MARSHALLTOWN   SUNNY     73  39  29 MISG      30.21S
6HR MIN TEMP:  46; 6HR MAX TEMP:  74;

PELLA *        PTSUNNY   74  46  36 W6        30.23F
PERRY *          N/A     73  35  25 CALM      30.21
$$

IAZ004>006-015-016-023>025-035-036-221900-
   NORTH CENTRAL IOWA

CITY           SKY/WX    TMP DP  RH WIND       PRES   REMARKS
ALGONA *       SUNNY     72  36  26 SE8       30.23S
CLARION *      SUNNY     72  32  23 CALM      30.22F
ESTHERVILLE    SUNNY     71  34  25 VRB3      30.22R
6HR MIN TEMP:  47; 6HR MAX TEMP:  71;

FORT DODGE *   SUNNY     72  43  35 S5        30.24S
MASON CITY     SUNNY     72  35  25 VRB7      30.24R
6HR MIN TEMP:  46; 6HR MAX TEMP:  73;

FOREST CITY *  SUNNY     68  37  32 CALM      30.23S
IOWA FALLS *     N/A     72  32  23 CALM      30.23S
$$

IAZ007>011-017>019-026>030-037>042-050>054-066-221900-
   NORTHEAST IOWA

CITY           SKY/WX    TMP DP  RH WIND       PRES   REMARKS
CEDAR RAPIDS   SUNNY     74  38  27 NW8       30.21S
6HR MIN TEMP:  48; 6HR MAX TEMP:  74;

CHARLES CITY * SUNNY     72  32  23 VRB6      30.22S
CLINTON *      SUNNY     72  39  30 CALM      30.24R
DECORAH *      SUNNY     68  34  28 CALM      30.21R
DUBUQUE        SUNNY     71  40  32 CALM      30.22S
6HR MIN TEMP:  50; 6HR MAX TEMP:  71;

MONTICELLO *   SUNNY     72  37  28 VRB5      30.21S
OELWEIN *      SUNNY     72  36  26 VRB5G13   30.22S
WATERLOO       SUNNY     73  39  29 SW9       30.21S
6HR MIN TEMP:  46; 6HR MAX TEMP:  73;

$$

IAZ064-065-067-068-078-221900-
   EAST CENTRAL IOWA

CITY           SKY/WX    TMP DP  RH WIND       PRES   REMARKS
DAVENPORT      SUNNY     74  32  21 VRB6      30.21S
6HR MIN TEMP:  49; 6HR MAX TEMP:  75;

IOWA CITY      SUNNY     73  38  27 CALM      30.23S
6HR MIN TEMP:  49; 6HR MAX TEMP:  73;

MT. PLEASANT * MOSUNNY   74  35  23 W6        30.22F
MUSCATINE *    SUNNY     75  36  23 SW5       30.22R
QUAD CITIES    SUNNY     75  39  27 VRB5      30.20S
6HR MIN TEMP:  50; 6HR MAX TEMP:  75;

$$

IAZ062-063-075>077-085>089-095>099-221900-
   SOUTHEAST IOWA

CITY           SKY/WX    TMP DP  RH WIND       PRES   REMARKS
BURLINGTON     MOSUNNY   74  43  32 S6        30.21F
6HR MIN TEMP:  53; 6HR MAX TEMP:  74;

FAIRFIELD *    SUNNY     73  37  27 VRB5      30.23S
FORT MADISON * SUNNY     73  43  33 CALM      30.23F
KEOKUK *       SUNNY     73  45  35 NW5       30.22S
OSKALOOSA *      N/A     74  32  20 N7        30.22F
CENTERVILLE *  SUNNY     72  72 100 CALM      30.24F
OTTUMWA        PTSUNNY   73  39  29 VRB5      30.22F
6HR MIN TEMP:  51; 6HR MAX TEMP:  73;

WASHINGTON *   SUNNY     73  34  23 VRB3      30.23S
$$

ABBREVIATIONS USED IN REMARKS
   TC - TEMPERATURES IN CELSIUS
  WCI - WIND CHILL INDEX
   HX - HEAT INDEX
  VSB - VISIBILITY
$$



USA.gov is the U.S. government's official web portal to all federal, state and local government web resources and services.